GSAT0203 (GALILEO 7) (40544 NORAD) Tracking and Keplerian Element Data

This shows tracking and keplerian element data for the satellite.

Feedback or suggestion? Click here.




ElementValue
Catalog40544
NameGSAT0203 (GALILEO 7)
Epoch Orbit2261
Epoch Day319.18707055
Epoch Year2018
RAAN57.5365
Inclination56.0131
Eccentricity0.0004069
Argument of Perigee230.1172
Mean Anonmoly129.8534
Mean Motion1.70475538
Decay Rate-6E-07
L11 40544U 15017A 18319.18707055 -.00000060 00000-0 00000+0 0 9992
L22 40544 56.0131 57.5365 0004069 230.1172 129.8534 1.70475538 22614

Live tracking and technical data element details for GSAT0203 (GALILEO 7) (NORAD 40544). GSAT0203 (GALILEO 7) can be tracked NOW for your location showing map with azimuth and elevation plus other details from your city location.

Track the satellite on the map from your city or location and see movement details for azimuth, elevation, latitude, longitude, range, height, and movement on the map or in text.







IsCatalogInMostPopularTable: catalog: 40544, numindb: 117
Update: records affected: 1



GetName: 40544 GSAT0203 (GALILEO 7)

Hit Count: updated at: Fri, 16 Nov 2018 06:21:52 GMT